Regional Weather Roundup
Issued by NWS

Home | Current Version | Previous Version | Graphics & Text | Print | Product List | Glossary Off
Versions: 1 2 3 4 5 6 7 8 9 10 11 12 13 14 15 16 17 18 19 20 21 22 23 24 25 26 27 28 29 30 31 32 33 34 35 36 37 38 39 40 41 42 43 44 45 46 47 48 49 50

000
ASUS43 KDMX 280107
RWRIA

WEATHER ROUNDUP FOR IOWA
NATIONAL WEATHER SERVICE DES MOINES IA
800 PM CDT WED AUG 27 2014

NOTE: "FAIR" INDICATES FEW OR NO CLOUDS BELOW 12,000 FEET WITH NO
SIGNIFICANT WEATHER AND/OR OBSTRUCTIONS TO VISIBILITY.

* - THESE STATIONS ARE NOT NWS STATIONS...THUS NOT UNDER NWS
QUALITY CONTROL.  THEY ALSO DO NOT REPORT WEATHER SUCH
AS PRECIPITATION OR FOG.

IAZ001>003-012>014-020>022-031>034-043>046-280200-
   NORTHWEST IOWA

CITY           SKY/WX    TMP DP  RH WIND       PRES   REMARKS
CARROLL *      CLOUDY    70  68  94 SE5       30.09R
DENISON *      PTCLDY    70  70 100 SE7       30.06F
LE MARS *      MOCLDY    72  68  88 CALM      30.07S
ORANGE CITY *  CLOUDY    72  66  83 E3        30.08S
SHELDON *      PTCLDY    68  66  94 CALM      30.08S
SIOUX CITY     CLOUDY    71  68  90 SE6       30.06S
SPENCER        CLOUDY    71  65  81 E3        30.10S
STORM LAKE *   CLOUDY    68  68 100 SE5       30.10R
$$

IAZ055>058-069>071-079>083-090>094-280200-
   SOUTHWEST IOWA

CITY           SKY/WX    TMP DP  RH WIND       PRES   REMARKS
ATLANTIC *     CLOUDY    72  70  94 E6        30.07S
AUDUBON *      PTCLDY    72  70  94 CALM      30.10S
CLARINDA *     CLOUDY    73  70  88 CALM      30.08S
COUNCIL BLFS * CLOUDY    72  72 100 E8        30.04F
CRESTON *      PTCLDY    70  70 100 NE5       30.09S
HARLAN  *      CLOUDY    70  70 100 E7        30.11S
LAMONI         CLOUDY    73  70  90 NE3       30.08R
RED OAK *      CLOUDY    72  70  94 E5        30.06S
SHENANDOAH *   PTCLDY    72  70  94 E9        30.06S
$$

IAZ047>049-059>061-072>074-084-280200-
   CENTRAL IOWA

CITY           SKY/WX    TMP DP  RH WIND       PRES   REMARKS
AMES           MOCLDY    70  66  87 E5        30.08S
ANKENY *       CLOUDY    73  70  88 CALM      30.08R
CHARITON *     CLOUDY    72  70  94 NE5       30.09R
DES MOINES     CLOUDY    73  68  84 CALM      30.08R
GRINNELL*      PTCLDY    68  64  88 E3        30.09S
KNOXVILLE *    MOCLDY    72  68  88 CALM      30.07R
MARSHALLTOWN   MOCLDY    69  65  86 E5        30.08F
PELLA *        MOCLDY    72  68  88 CALM      30.09S
PERRY *        CLOUDY    72  68  88 CALM      30.09R
$$

IAZ004>006-015-016-023>025-035-036-280200-
   NORTH CENTRAL IOWA

CITY           SKY/WX    TMP DP  RH WIND       PRES   REMARKS
ALGONA *       CLEAR     70  63  78 E5        30.10S
CLARION *      CLEAR     68  64  88 E5        30.09S
ESTHERVILLE    PTCLDY    66  63  90 NE5       30.10S
FORT DODGE *   MOCLDY    70  64  83 SE3       30.10R
MASON CITY     PTCLDY    67  61  81 E3        30.12S
FOREST CITY *  CLEAR     68  61  77 CALM      30.11S
IOWA FALLS *     N/A     70  63  78 CALM      30.10S
$$

IAZ007>011-017>019-026>030-037>042-050>054-066-280200-
   NORTHEAST IOWA

CITY           SKY/WX    TMP DP  RH WIND       PRES   REMARKS
CEDAR RAPIDS   PTCLDY    69  65  86 E5        30.09S
CHARLES CITY * CLEAR     68  61  77 E6        30.11F
CLINTON *      PTCLDY    68  61  77 CALM      30.12R
DECORAH *      CLEAR     66  61  82 NE3       30.12R
DUBUQUE        PTCLDY    68  61  78 NE5       30.11R
MONTICELLO *   CLEAR     68  64  88 CALM      30.10S
OELWEIN *      PTCLDY    66  63  88 NE5       30.11S
WATERLOO       MOCLDY    69  63  81 E5        30.08F
$$

IAZ064-065-067-068-078-280200-
   EAST CENTRAL IOWA

CITY           SKY/WX    TMP DP  RH WIND       PRES   REMARKS
DAVENPORT      CLEAR     69  61  75 E6        30.10R
IOWA CITY      PTCLDY    73  64  73 E5        30.10S
MT. PLEASANT * PTCLDY    72  70  94 NE5       30.09R
MUSCATINE *    CLOUDY    70  64  83 N6        30.09R
QUAD CITIES    PTCLDY    74  62  66 NE7       30.08S
$$

IAZ062-063-075>077-085>089-095>099-280200-
   SOUTHEAST IOWA

CITY           SKY/WX    TMP DP  RH WIND       PRES   REMARKS
BURLINGTON     PTCLDY    75  70  84 E7        30.08R
FAIRFIELD *    CLEAR     72  68  88 NE6       30.09R
FORT MADISON * CLEAR     73  72  94 CALM      30.09R
KEOKUK *       PTCLDY    75  72  88 E3        30.07R
OSKALOOSA *      N/A     72  68  88 E5        30.08S
CENTERVILLE *  CLEAR     72  72 100 E3        30.09S
OTTUMWA        MOCLDY    73  69  87 NE5       30.08R
WASHINGTON *   CLEAR     72  70  94 NE6       30.09R
$$

ABBREVIATIONS USED IN REMARKS
   TC - TEMPERATURES IN CELSIUS
  WCI - WIND CHILL INDEX
   HX - HEAT INDEX
  VSB - VISIBILITY
$$



USA.gov is the U.S. government's official web portal to all federal, state and local government web resources and services.